Time,TemperatureF,DewpointF,PressureIn,WindDirection,WindDirectionDegrees,WindSpeedMPH,WindSpeedGustMPH,Humidity,HourlyPrecipIn,Conditions,Clouds,dailyrainin,SoftwareType,DateUTC
2013-05-22 00:00:00,53.2,52.0,29.75,WNW,284,0.0,0.0,91,0.00,,,0.00,WXlink_for_OpenVMS,2013-05-22 04:00:00,
2013-05-22 00:05:00,52.9,50.0,29.75,West,276,0.0,0.0,91,0.00,,,0.00,WXlink_for_OpenVMS,2013-05-22 04:05:00,
2013-05-22 00:10:00,52.9,50.0,29.75,NNW,343,0.0,0.0,91,0.00,,,0.00,WXlink_for_OpenVMS,2013-05-22 04:10:00,
2013-05-22 00:15:00,52.9,50.0,29.78,WNW,293,3.1,3.6,92,0.00,,,0.00,WXlink_for_OpenVMS,2013-05-22 04:15:00,
2013-05-22 00:20:00,52.9,50.0,29.78,West,281,2.2,3.1,92,0.00,,,0.00,WXlink_for_OpenVMS,2013-05-22 04:20:00,
2013-05-22 00:25:00,52.7,50.0,29.78,WNW,296,0.0,0.0,93,0.00,,,0.00,WXlink_for_OpenVMS,2013-05-22 04:25:00,
2013-05-22 00:30:00,52.7,50.0,29.81,NW,308,0.0,0.0,93,0.00,,,0.00,WXlink_for_OpenVMS,2013-05-22 04:30:00,
2013-05-22 00:35:00,52.5,50.0,29.81,WNW,303,0.0,0.0,94,0.00,,,0.00,WXlink_for_OpenVMS,2013-05-22 04:35:00,
2013-05-22 00:40:00,52.3,50.0,29.81,North,357,0.0,0.0,94,0.00,,,0.00,WXlink_for_OpenVMS,2013-05-22 04:40:00,
2013-05-22 00:45:00,52.2,50.0,29.78,NE,42,0.0,0.0,94,0.00,,,0.00,WXlink_for_OpenVMS,2013-05-22 04:45:00,
2013-05-22 00:50:00,52.0,50.0,29.78,East,83,0.0,0.0,94,0.00,,,0.00,WXlink_for_OpenVMS,2013-05-22 04:50:00,
2013-05-22 00:55:00,51.8,50.0,29.78,East,93,0.0,0.0,94,0.00,,,0.00,WXlink_for_OpenVMS,2013-05-22 04:55:00,
2013-05-22 01:00:00,52.0,50.0,29.72,SSE,159,0.0,0.0,94,0.00,,,0.04,WXlink_for_OpenVMS,2013-05-22 05:00:00,
2013-05-22 01:05:00,52.0,50.0,29.72,ESE,109,0.0,0.0,94,0.00,,,0.04,WXlink_for_OpenVMS,2013-05-22 05:05:00,
2013-05-22 01:10:00,51.8,50.0,29.72,NNW,333,0.0,0.0,94,0.00,,,0.04,WXlink_for_OpenVMS,2013-05-22 05:10:00,
2013-05-22 01:15:00,51.6,50.0,29.69,ESE,104,0.0,0.0,94,0.16,,,0.08,WXlink_for_OpenVMS,2013-05-22 05:15:00,
2013-05-22 01:20:00,51.4,50.0,29.69,ESE,104,0.0,0.0,94,0.16,,,0.08,WXlink_for_OpenVMS,2013-05-22 05:20:00,
2013-05-22 01:25:00,51.6,50.0,29.69,ESE,104,0.0,0.0,94,0.16,,,0.08,WXlink_for_OpenVMS,2013-05-22 05:25:00,
2013-05-22 01:30:00,51.6,50.0,29.69,NNW,334,0.0,0.0,95,0.16,,,0.08,WXlink_for_OpenVMS,2013-05-22 05:30:00,
2013-05-22 01:35:00,51.6,50.0,29.69,SW,224,0.0,0.0,95,0.16,,,0.08,WXlink_for_OpenVMS,2013-05-22 05:35:00,
2013-05-22 01:40:00,51.6,50.0,29.69,East,87,0.0,0.0,95,0.16,,,0.08,WXlink_for_OpenVMS,2013-05-22 05:40:00,
2013-05-22 01:50:00,51.6,50.0,29.66,SW,214,0.0,0.0,95,0.12,,,0.12,WXlink_for_OpenVMS,2013-05-22 05:50:00,
2013-05-22 01:55:00,51.8,50.0,29.66,SW,214,0.0,0.0,95,0.12,,,0.12,WXlink_for_OpenVMS,2013-05-22 05:55:00,
2013-05-22 02:00:00,51.8,50.0,29.66,South,179,0.0,0.0,95,0.12,,,0.12,WXlink_for_OpenVMS,2013-05-22 06:00:00,
2013-05-22 02:05:00,51.6,50.0,29.66,East,91,0.0,0.0,95,0.12,,,0.12,WXlink_for_OpenVMS,2013-05-22 06:05:00,
2013-05-22 02:10:00,51.4,50.0,29.66,West,276,0.0,0.0,95,0.12,,,0.12,WXlink_for_OpenVMS,2013-05-22 06:10:00,
2013-05-22 02:15:00,51.4,50.0,29.63,SE,131,0.0,0.0,95,0.12,,,0.12,WXlink_for_OpenVMS,2013-05-22 06:15:00,
2013-05-22 02:20:00,51.4,50.0,29.63,NNW,330,0.0,0.0,95,0.12,,,0.12,WXlink_for_OpenVMS,2013-05-22 06:20:00,
2013-05-22 02:25:00,51.4,50.0,29.63,NNW,330,0.0,0.0,95,0.12,,,0.12,WXlink_for_OpenVMS,2013-05-22 06:25:00,
2013-05-22 02:30:00,51.6,50.0,29.66,West,280,0.0,0.0,95,0.12,,,0.12,WXlink_for_OpenVMS,2013-05-22 06:30:00,
2013-05-22 02:35:00,51.6,50.0,29.66,West,280,0.0,0.0,95,0.12,,,0.12,WXlink_for_OpenVMS,2013-05-22 06:35:00,
2013-05-22 02:40:00,51.6,50.0,29.66,West,280,0.0,0.0,96,0.12,,,0.12,WXlink_for_OpenVMS,2013-05-22 06:40:00,
2013-05-22 02:45:00,51.8,50.0,29.69,West,280,0.0,0.0,96,0.12,,,0.12,WXlink_for_OpenVMS,2013-05-22 06:45:00,
2013-05-22 02:55:00,52.0,50.0,29.69,West,280,0.0,0.0,96,0.12,,,0.12,WXlink_for_OpenVMS,2013-05-22 06:55:00,
2013-05-22 03:00:00,52.0,50.0,29.69,West,280,0.0,0.0,96,0.12,,,0.12,WXlink_for_OpenVMS,2013-05-22 07:00:00,
2013-05-22 03:05:00,51.6,50.0,29.69,West,280,0.0,0.0,96,0.12,,,0.12,WXlink_for_OpenVMS,2013-05-22 07:05:00,
2013-05-22 03:10:00,51.8,50.0,29.69,West,280,0.0,0.0,96,0.12,,,0.12,WXlink_for_OpenVMS,2013-05-22 07:10:00,
2013-05-22 03:15:00,51.8,50.0,29.69,West,280,0.0,0.0,96,0.12,,,0.12,WXlink_for_OpenVMS,2013-05-22 07:15:00,
2013-05-22 03:20:00,52.0,50.0,29.69,West,280,0.0,0.0,96,0.12,,,0.12,WXlink_for_OpenVMS,2013-05-22 07:20:00,
2013-05-22 03:25:00,52.0,50.0,29.69,West,280,0.0,0.0,96,0.12,,,0.12,WXlink_for_OpenVMS,2013-05-22 07:25:00,
2013-05-22 03:30:00,52.0,50.0,29.69,West,280,0.0,4.5,96,0.12,,,0.12,WXlink_for_OpenVMS,2013-05-22 07:30:00,
2013-05-22 03:40:00,52.0,50.0,29.69,West,270,2.7,3.1,96,0.12,,,0.12,WXlink_for_OpenVMS,2013-05-22 07:40:00,
2013-05-22 03:45:00,51.8,50.0,29.75,NW,308,0.0,0.0,96,0.12,,,0.12,WXlink_for_OpenVMS,2013-05-22 07:45:00,
2013-05-22 03:50:00,51.8,50.0,29.75,East,84,0.0,0.0,96,0.04,,,0.20,WXlink_for_OpenVMS,2013-05-22 07:50:00,
2013-05-22 03:55:00,51.6,51.0,29.75,WNW,287,0.0,0.0,97,0.79,,,0.24,WXlink_for_OpenVMS,2013-05-22 07:55:00,
2013-05-22 04:00:00,51.6,51.0,29.69,WNW,287,0.0,0.0,97,0.55,,,0.28,WXlink_for_OpenVMS,2013-05-22 08:00:00,
2013-05-22 04:05:00,51.4,51.0,29.69,WNW,287,0.0,0.0,97,0.39,,,0.31,WXlink_for_OpenVMS,2013-05-22 08:05:00,
2013-05-22 04:10:00,51.8,51.0,29.69,WNW,287,0.0,0.0,97,0.39,,,0.31,WXlink_for_OpenVMS,2013-05-22 08:10:00,
2013-05-22 04:15:00,51.6,51.0,29.69,NW,312,0.0,0.0,97,0.39,,,0.31,WXlink_for_OpenVMS,2013-05-22 08:15:00,
2013-05-22 04:20:00,51.6,51.0,29.69,NW,312,0.0,0.0,97,0.39,,,0.31,WXlink_for_OpenVMS,2013-05-22 08:20:00,
2013-05-22 04:30:00,51.6,51.0,29.66,NW,312,0.0,0.0,97,0.39,,,0.31,WXlink_for_OpenVMS,2013-05-22 08:30:00,
2013-05-22 04:35:00,51.8,51.0,29.66,NW,312,0.0,0.0,97,0.39,,,0.31,WXlink_for_OpenVMS,2013-05-22 08:35:00,
2013-05-22 04:40:00,51.8,51.0,29.66,NW,312,0.0,0.0,97,0.39,,,0.31,WXlink_for_OpenVMS,2013-05-22 08:40:00,
2013-05-22 04:45:00,51.8,51.0,29.66,NW,312,0.0,0.0,97,0.39,,,0.31,WXlink_for_OpenVMS,2013-05-22 08:45:00,
2013-05-22 04:50:00,51.6,51.0,29.66,NW,312,0.0,0.0,97,0.39,,,0.31,WXlink_for_OpenVMS,2013-05-22 08:50:00,
2013-05-22 04:55:00,51.8,51.0,29.66,NW,312,0.0,0.0,97,0.39,,,0.31,WXlink_for_OpenVMS,2013-05-22 08:55:00,
2013-05-22 05:00:00,51.6,51.0,29.66,NW,312,0.0,0.0,97,0.39,,,0.31,WXlink_for_OpenVMS,2013-05-22 09:00:00,
2013-05-22 05:05:00,51.8,51.0,29.66,NW,312,0.0,0.0,97,0.39,,,0.31,WXlink_for_OpenVMS,2013-05-22 09:05:00,
2013-05-22 05:10:00,51.8,51.0,29.66,NW,312,0.0,0.0,97,0.39,,,0.31,WXlink_for_OpenVMS,2013-05-22 09:10:00,
2013-05-22 05:15:00,51.8,51.0,29.66,NW,312,0.0,0.0,97,0.39,,,0.31,WXlink_for_OpenVMS,2013-05-22 09:15:00,
2013-05-22 05:20:00,51.6,51.0,29.66,NW,312,0.0,0.0,98,0.39,,,0.31,WXlink_for_OpenVMS,2013-05-22 09:20:00,
2013-05-22 05:30:00,51.8,51.0,29.66,NW,312,0.0,0.0,98,0.08,,,0.35,WXlink_for_OpenVMS,2013-05-22 09:30:00,
2013-05-22 05:35:00,51.8,51.0,29.66,NW,305,0.0,0.0,97,0.08,,,0.35,WXlink_for_OpenVMS,2013-05-22 09:35:00,
2013-05-22 05:40:00,52.0,52.0,29.66,SSW,202,0.0,0.0,97,0.08,,,0.35,WXlink_for_OpenVMS,2013-05-22 09:40:00,
2013-05-22 05:45:00,52.0,52.0,29.63,North,4,0.0,0.0,97,0.08,,,0.35,WXlink_for_OpenVMS,2013-05-22 09:45:00,
2013-05-22 05:50:00,52.0,52.0,29.63,SSE,147,0.0,0.0,97,0.08,,,0.35,WXlink_for_OpenVMS,2013-05-22 09:50:00,
2013-05-22 05:55:00,52.2,52.0,29.63,SSE,167,0.0,0.0,97,0.08,,,0.35,WXlink_for_OpenVMS,2013-05-22 09:55:00,
2013-05-22 06:00:00,52.2,52.0,29.63,NNW,333,0.0,0.0,97,0.08,,,0.35,WXlink_for_OpenVMS,2013-05-22 10:00:00,
2013-05-22 06:10:00,52.2,52.0,29.63,SW,236,0.0,0.0,97,0.08,,,0.35,WXlink_for_OpenVMS,2013-05-22 10:10:00,
2013-05-22 06:15:00,52.0,52.0,29.63,SW,236,0.0,0.0,97,0.08,,,0.35,WXlink_for_OpenVMS,2013-05-22 10:15:00,
2013-05-22 06:20:00,52.2,52.0,29.63,WSW,254,0.0,0.0,97,0.08,,,0.35,WXlink_for_OpenVMS,2013-05-22 10:20:00,
2013-05-22 06:25:00,52.2,52.0,29.63,WSW,257,0.0,0.0,97,0.08,,,0.35,WXlink_for_OpenVMS,2013-05-22 10:25:00,
2013-05-22 06:30:00,52.3,52.0,29.63,WSW,257,0.0,0.0,97,0.08,,,0.35,WXlink_for_OpenVMS,2013-05-22 10:30:00,
2013-05-22 06:35:00,52.3,52.0,29.63,SE,135,0.0,0.0,97,0.08,,,0.35,WXlink_for_OpenVMS,2013-05-22 10:35:00,
2013-05-22 06:40:00,52.5,52.0,29.63,SE,135,0.0,0.0,97,0.08,,,0.35,WXlink_for_OpenVMS,2013-05-22 10:40:00,
2013-05-22 06:45:00,52.5,52.0,29.66,WNW,296,0.0,0.0,97,0.08,,,0.35,WXlink_for_OpenVMS,2013-05-22 10:45:00,
2013-05-22 06:50:00,52.5,52.0,29.66,WNW,296,0.0,0.0,97,0.08,,,0.35,WXlink_for_OpenVMS,2013-05-22 10:50:00,
2013-05-22 07:00:00,52.7,52.0,29.66,WNW,296,0.0,0.0,98,0.08,,,0.35,WXlink_for_OpenVMS,2013-05-22 11:00:00,
2013-05-22 07:05:00,52.9,52.0,29.66,WNW,296,0.0,0.0,98,0.08,,,0.35,WXlink_for_OpenVMS,2013-05-22 11:05:00,
2013-05-22 07:10:00,53.1,53.0,29.66,WNW,296,0.0,0.0,98,0.08,,,0.35,WXlink_for_OpenVMS,2013-05-22 11:10:00,
2013-05-22 07:15:00,53.1,53.0,29.66,WNW,296,0.0,0.0,98,0.08,,,0.35,WXlink_for_OpenVMS,2013-05-22 11:15:00,
2013-05-22 07:20:00,53.2,53.0,29.66,WNW,296,0.0,0.0,98,0.08,,,0.35,WXlink_for_OpenVMS,2013-05-22 11:20:00,
2013-05-22 07:25:00,53.2,53.0,29.66,WNW,296,0.0,0.0,98,0.08,,,0.35,WXlink_for_OpenVMS,2013-05-22 11:25:00,
2013-05-22 07:30:00,53.2,53.0,29.66,WNW,296,0.0,0.0,98,0.00,,,0.35,WXlink_for_OpenVMS,2013-05-22 11:30:00,
2013-05-22 07:35:00,53.4,53.0,29.66,WNW,296,0.0,0.0,98,0.00,,,0.35,WXlink_for_OpenVMS,2013-05-22 11:35:00,
2013-05-22 07:40:00,53.6,53.0,29.66,WNW,296,0.0,0.0,98,0.00,,,0.35,WXlink_for_OpenVMS,2013-05-22 11:40:00,
2013-05-22 07:45:00,53.4,53.0,29.63,WNW,296,0.0,0.0,98,0.00,,,0.35,WXlink_for_OpenVMS,2013-05-22 11:45:00,
2013-05-22 07:50:00,53.6,53.0,29.63,WNW,296,0.0,0.0,98,0.00,,,0.35,WXlink_for_OpenVMS,2013-05-22 11:50:00,
2013-05-22 07:55:00,53.8,53.0,29.63,WNW,296,0.0,0.0,97,0.00,,,0.35,WXlink_for_OpenVMS,2013-05-22 11:55:00,
2013-05-22 08:05:00,54.0,54.0,29.63,WNW,296,0.0,0.0,97,0.00,,,0.35,WXlink_for_OpenVMS,2013-05-22 12:05:00,
2013-05-22 08:10:00,54.0,54.0,29.63,WNW,296,0.0,0.0,97,0.00,,,0.35,WXlink_for_OpenVMS,2013-05-22 12:10:00,
2013-05-22 08:15:00,54.1,54.0,29.63,WNW,296,0.0,0.0,97,0.00,,,0.35,WXlink_for_OpenVMS,2013-05-22 12:15:00,
2013-05-22 08:20:00,54.3,54.0,29.63,WNW,296,0.0,0.0,97,0.00,,,0.35,WXlink_for_OpenVMS,2013-05-22 12:20:00,
2013-05-22 08:30:00,54.9,54.0,29.63,WNW,296,0.0,0.0,97,0.00,,,0.35,WXlink_for_OpenVMS,2013-05-22 12:30:00,
2013-05-22 08:35:00,55.0,55.0,29.63,WNW,296,0.0,0.0,97,0.00,,,0.35,WXlink_for_OpenVMS,2013-05-22 12:35:00,
2013-05-22 08:40:00,55.0,55.0,29.63,WNW,296,0.0,0.0,97,0.00,,,0.35,WXlink_for_OpenVMS,2013-05-22 12:40:00,
2013-05-22 08:45:00,55.2,55.0,29.66,WNW,296,0.0,0.0,97,0.00,,,0.35,WXlink_for_OpenVMS,2013-05-22 12:45:00,
2013-05-22 08:50:00,55.2,55.0,29.66,WNW,296,0.0,0.0,97,0.00,,,0.35,WXlink_for_OpenVMS,2013-05-22 12:50:00,
2013-05-22 08:55:00,55.4,55.0,29.66,WNW,296,0.0,0.0,97,0.00,,,0.35,WXlink_for_OpenVMS,2013-05-22 12:55:00,
2013-05-22 09:00:00,55.6,54.0,29.66,WNW,296,0.0,0.0,96,0.00,,,0.35,WXlink_for_OpenVMS,2013-05-22 13:00:00,
2013-05-22 09:05:00,55.8,54.0,29.66,WNW,296,0.0,0.0,96,0.00,,,0.35,WXlink_for_OpenVMS,2013-05-22 13:05:00,
2013-05-22 09:10:00,55.9,54.0,29.66,WNW,296,0.0,0.0,96,0.00,,,0.35,WXlink_for_OpenVMS,2013-05-22 13:10:00,
2013-05-22 09:15:00,56.1,54.0,29.66,WNW,296,0.0,0.0,96,0.00,,,0.35,WXlink_for_OpenVMS,2013-05-22 13:15:00,
2013-05-22 09:20:00,56.1,54.0,29.66,WNW,296,0.0,0.0,96,0.00,,,0.35,WXlink_for_OpenVMS,2013-05-22 13:20:00,
2013-05-22 09:30:00,56.1,54.0,29.66,WNW,296,0.0,0.0,96,0.00,,,0.35,WXlink_for_OpenVMS,2013-05-22 13:30:00,
2013-05-22 09:35:00,56.3,55.0,29.66,WNW,296,0.0,0.0,96,0.00,,,0.35,WXlink_for_OpenVMS,2013-05-22 13:35:00,
2013-05-22 09:40:00,56.3,55.0,29.66,WNW,296,0.0,0.0,96,0.00,,,0.35,WXlink_for_OpenVMS,2013-05-22 13:40:00,
2013-05-22 09:45:00,56.5,55.0,29.66,WNW,296,0.0,0.0,96,0.00,,,0.35,WXlink_for_OpenVMS,2013-05-22 13:45:00,
2013-05-22 09:50:00,56.5,55.0,29.66,South,180,0.0,0.0,96,0.00,,,0.35,WXlink_for_OpenVMS,2013-05-22 13:50:00,
2013-05-22 09:55:00,56.7,55.0,29.66,South,180,0.0,0.0,96,0.00,,,0.35,WXlink_for_OpenVMS,2013-05-22 13:55:00,
2013-05-22 10:00:00,56.7,55.0,29.66,South,180,0.0,0.0,96,0.00,,,0.35,WXlink_for_OpenVMS,2013-05-22 14:00:00,
2013-05-22 10:10:00,57.0,55.0,29.66,South,180,0.0,0.0,96,0.00,,,0.35,WXlink_for_OpenVMS,2013-05-22 14:10:00,
2013-05-22 10:15:00,57.2,55.0,29.66,South,180,0.0,0.0,95,0.00,,,0.35,WXlink_for_OpenVMS,2013-05-22 14:15:00,
2013-05-22 10:20:00,57.2,55.0,29.66,East,84,0.0,0.0,95,0.00,,,0.35,WXlink_for_OpenVMS,2013-05-22 14:20:00,
2013-05-22 10:25:00,57.4,55.0,29.66,SSE,160,0.0,0.0,95,0.00,,,0.35,WXlink_for_OpenVMS,2013-05-22 14:25:00,
2013-05-22 10:30:00,57.4,55.0,29.66,SSE,160,0.0,0.0,95,0.00,,,0.35,WXlink_for_OpenVMS,2013-05-22 14:30:00,
2013-05-22 10:35:00,57.6,55.0,29.66,SSE,154,0.0,0.0,95,0.00,,,0.35,WXlink_for_OpenVMS,2013-05-22 14:35:00,
2013-05-22 10:40:00,57.7,55.0,29.66,SSE,154,0.0,0.0,95,0.00,,,0.35,WXlink_for_OpenVMS,2013-05-22 14:40:00,
2013-05-22 10:45:00,57.7,55.0,29.66,SSE,154,0.0,0.0,95,0.00,,,0.35,WXlink_for_OpenVMS,2013-05-22 14:45:00,
2013-05-22 10:50:00,57.9,55.0,29.66,SSE,154,0.0,0.0,95,0.00,,,0.35,WXlink_for_OpenVMS,2013-05-22 14:50:00,
2013-05-22 11:00:00,58.1,57.0,29.66,SSE,162,0.0,0.0,96,0.00,,,0.35,WXlink_for_OpenVMS,2013-05-22 15:00:00,
2013-05-22 11:05:00,58.3,57.0,29.66,SSE,162,0.0,0.0,96,0.00,,,0.35,WXlink_for_OpenVMS,2013-05-22 15:05:00,
2013-05-22 11:10:00,58.5,57.0,29.66,South,176,0.0,0.0,95,0.00,,,0.35,WXlink_for_OpenVMS,2013-05-22 15:10:00,
2013-05-22 11:15:00,58.5,57.0,29.66,SSE,167,0.0,0.0,95,0.00,,,0.35,WXlink_for_OpenVMS,2013-05-22 15:15:00,
2013-05-22 11:20:00,58.6,57.0,29.66,SSE,167,0.0,0.0,95,0.00,,,0.35,WXlink_for_OpenVMS,2013-05-22 15:20:00,
2013-05-22 11:25:00,58.8,57.0,29.66,SSE,167,0.0,0.0,95,0.00,,,0.35,WXlink_for_OpenVMS,2013-05-22 15:25:00,
2013-05-22 11:30:00,59.0,57.0,29.66,SSE,167,0.0,0.0,95,0.00,,,0.35,WXlink_for_OpenVMS,2013-05-22 15:30:00,
2013-05-22 11:35:00,59.2,57.0,29.66,SSE,167,0.0,0.0,95,0.00,,,0.35,WXlink_for_OpenVMS,2013-05-22 15:35:00,
2013-05-22 11:40:00,59.4,57.0,29.66,SSE,167,0.0,0.0,95,0.00,,,0.35,WXlink_for_OpenVMS,2013-05-22 15:40:00,
2013-05-22 11:45:00,59.5,57.0,29.66,SSE,167,0.0,0.0,95,0.00,,,0.35,WXlink_for_OpenVMS,2013-05-22 15:45:00,
2013-05-22 11:50:00,59.7,59.0,29.66,SSE,167,0.0,0.0,95,0.00,,,0.35,WXlink_for_OpenVMS,2013-05-22 15:50:00,
2013-05-22 12:00:00,60.1,59.0,29.66,SSE,167,0.0,0.0,95,0.00,,,0.35,WXlink_for_OpenVMS,2013-05-22 16:00:00,
2013-05-22 12:05:00,60.3,59.0,29.66,SSE,167,0.0,0.0,94,0.00,,,0.35,WXlink_for_OpenVMS,2013-05-22 16:05:00,
2013-05-22 12:10:00,60.4,59.0,29.66,SSE,167,0.0,0.0,94,0.00,,,0.35,WXlink_for_OpenVMS,2013-05-22 16:10:00,
2013-05-22 12:15:00,60.4,59.0,29.66,ESE,116,0.0,0.0,94,0.00,,,0.35,WXlink_for_OpenVMS,2013-05-22 16:15:00,
2013-05-22 12:25:00,61.2,59.0,29.66,ESE,105,0.0,0.0,93,0.00,,,0.35,WXlink_for_OpenVMS,2013-05-22 16:25:00,
2013-05-22 12:30:00,61.3,61.0,29.66,ESE,105,0.0,0.0,93,0.00,,,0.35,WXlink_for_OpenVMS,2013-05-22 16:30:00,
2013-05-22 12:35:00,61.5,61.0,29.66,ESE,105,0.0,0.0,93,0.00,,,0.35,WXlink_for_OpenVMS,2013-05-22 16:35:00,
2013-05-22 12:40:00,61.7,61.0,29.66,ESE,105,0.0,0.0,93,0.00,,,0.35,WXlink_for_OpenVMS,2013-05-22 16:40:00,
2013-05-22 12:45:00,62.1,61.0,29.66,ESE,105,0.0,0.0,93,0.00,,,0.35,WXlink_for_OpenVMS,2013-05-22 16:45:00,
2013-05-22 12:50:00,62.2,61.0,29.66,SSE,163,0.0,0.0,92,0.00,,,0.35,WXlink_for_OpenVMS,2013-05-22 16:50:00,
2013-05-22 12:55:00,62.6,61.0,29.66,SSE,163,0.0,0.0,92,0.00,,,0.35,WXlink_for_OpenVMS,2013-05-22 16:55:00,
2013-05-22 13:00:00,62.6,61.0,29.66,SSE,163,0.0,0.0,92,0.00,,,0.35,WXlink_for_OpenVMS,2013-05-22 17:00:00,
2013-05-22 13:05:00,62.8,61.0,29.66,SSE,163,0.0,0.0,92,0.00,,,0.35,WXlink_for_OpenVMS,2013-05-22 17:05:00,
2013-05-22 13:15:00,63.3,63.0,29.66,SSE,163,0.0,0.0,92,0.00,,,0.35,WXlink_for_OpenVMS,2013-05-22 17:15:00,
2013-05-22 13:20:00,63.5,63.0,29.66,SSE,163,0.0,0.0,92,0.00,,,0.35,WXlink_for_OpenVMS,2013-05-22 17:20:00,
2013-05-22 13:25:00,63.5,63.0,29.66,SSE,163,0.0,0.0,92,0.00,,,0.35,WXlink_for_OpenVMS,2013-05-22 17:25:00,
2013-05-22 13:30:00,63.7,63.0,29.66,SSE,163,0.0,0.0,91,0.00,,,0.35,WXlink_for_OpenVMS,2013-05-22 17:30:00,
2013-05-22 13:35:00,63.7,63.0,29.66,ESE,110,0.0,0.0,91,0.00,,,0.35,WXlink_for_OpenVMS,2013-05-22 17:35:00,
2013-05-22 13:40:00,63.9,63.0,29.66,SW,215,0.0,0.0,92,0.00,,,0.35,WXlink_for_OpenVMS,2013-05-22 17:40:00,
2013-05-22 13:45:00,64.0,63.0,29.66,East,83,0.0,0.0,91,0.00,,,0.35,WXlink_for_OpenVMS,2013-05-22 17:45:00,
2013-05-22 13:50:00,64.2,63.0,29.66,East,83,0.0,0.0,91,0.00,,,0.35,WXlink_for_OpenVMS,2013-05-22 17:50:00,
2013-05-22 13:55:00,64.6,63.0,29.66,SSW,207,0.0,0.0,91,0.00,,,0.35,WXlink_for_OpenVMS,2013-05-22 17:55:00,
2013-05-22 14:00:00,64.9,63.0,29.66,East,92,0.0,0.0,90,0.00,,,0.35,WXlink_for_OpenVMS,2013-05-22 18:00:00,
2013-05-22 14:05:00,64.9,61.0,29.66,East,98,0.0,0.0,90,0.00,,,0.35,WXlink_for_OpenVMS,2013-05-22 18:05:00,
2013-05-22 14:10:00,64.8,61.0,29.66,North,0,0.0,0.0,90,0.00,,,0.35,WXlink_for_OpenVMS,2013-05-22 18:10:00,
2013-05-22 14:15:00,64.8,61.0,29.63,East,97,0.0,0.0,90,0.00,,,0.35,WXlink_for_OpenVMS,2013-05-22 18:15:00,
2013-05-22 14:25:00,65.1,63.0,29.63,East,82,0.0,0.0,90,0.00,,,0.35,WXlink_for_OpenVMS,2013-05-22 18:25:00,
2013-05-22 14:30:00,65.3,63.0,29.63,East,82,0.0,0.0,90,0.00,,,0.35,WXlink_for_OpenVMS,2013-05-22 18:30:00,
2013-05-22 14:35:00,65.8,63.0,29.63,East,92,0.0,0.0,90,0.00,,,0.35,WXlink_for_OpenVMS,2013-05-22 18:35:00,
2013-05-22 14:40:00,66.0,63.0,29.63,East,92,0.0,0.0,89,0.00,,,0.35,WXlink_for_OpenVMS,2013-05-22 18:40:00,
2013-05-22 14:45:00,66.0,63.0,29.63,East,92,0.0,0.0,90,0.00,,,0.35,WXlink_for_OpenVMS,2013-05-22 18:45:00,
2013-05-22 14:50:00,66.0,63.0,29.63,SSW,209,0.0,0.0,90,0.00,,,0.35,WXlink_for_OpenVMS,2013-05-22 18:50:00,
2013-05-22 15:00:00,65.8,63.0,29.63,East,85,0.0,0.0,90,0.00,,,0.35,WXlink_for_OpenVMS,2013-05-22 19:00:00,
2013-05-22 15:05:00,65.8,64.0,29.63,East,85,0.0,0.0,91,0.00,,,0.35,WXlink_for_OpenVMS,2013-05-22 19:05:00,
2013-05-22 15:10:00,65.8,64.0,29.63,East,85,0.0,0.0,91,0.00,,,0.35,WXlink_for_OpenVMS,2013-05-22 19:10:00,
2013-05-22 15:15:00,66.0,64.0,29.63,ESE,103,0.0,0.0,91,0.00,,,0.35,WXlink_for_OpenVMS,2013-05-22 19:15:00,
2013-05-22 15:20:00,66.0,64.0,29.63,ESE,103,0.0,0.0,91,0.00,,,0.35,WXlink_for_OpenVMS,2013-05-22 19:20:00,
2013-05-22 15:25:00,66.0,64.0,29.63,ESE,103,0.0,0.0,91,0.00,,,0.35,WXlink_for_OpenVMS,2013-05-22 19:25:00,
2013-05-22 15:30:00,66.0,64.0,29.63,ESE,103,0.0,0.0,91,0.00,,,0.35,WXlink_for_OpenVMS,2013-05-22 19:30:00,
2013-05-22 15:35:00,66.0,64.0,29.63,ESE,103,0.0,0.0,91,0.00,,,0.35,WXlink_for_OpenVMS,2013-05-22 19:35:00,
2013-05-22 15:40:00,66.2,64.0,29.63,ESE,103,0.0,0.0,91,0.00,,,0.35,WXlink_for_OpenVMS,2013-05-22 19:40:00,
2013-05-22 15:45:00,66.6,63.0,29.63,SSE,161,0.0,0.0,90,0.00,,,0.35,WXlink_for_OpenVMS,2013-05-22 19:45:00,
2013-05-22 15:55:00,66.6,63.0,29.63,East,90,0.0,0.0,89,0.00,,,0.35,WXlink_for_OpenVMS,2013-05-22 19:55:00,
2013-05-22 16:00:00,66.2,63.0,29.63,ESE,120,0.0,0.0,88,0.00,,,0.35,WXlink_for_OpenVMS,2013-05-22 20:00:00,
2013-05-22 16:05:00,66.0,63.0,29.63,WNW,282,0.0,0.0,87,0.00,,,0.35,WXlink_for_OpenVMS,2013-05-22 20:05:00,
2013-05-22 16:10:00,65.8,63.0,29.63,WNW,283,0.0,0.0,87,0.00,,,0.35,WXlink_for_OpenVMS,2013-05-22 20:10:00,
2013-05-22 16:15:00,65.7,63.0,29.63,SW,217,0.0,0.0,88,0.00,,,0.35,WXlink_for_OpenVMS,2013-05-22 20:15:00,
2013-05-22 16:20:00,65.7,63.0,29.63,South,187,0.0,0.0,88,0.00,,,0.35,WXlink_for_OpenVMS,2013-05-22 20:20:00,
2013-05-22 16:25:00,65.8,63.0,29.63,East,96,0.0,0.0,86,0.00,,,0.35,WXlink_for_OpenVMS,2013-05-22 20:25:00,
2013-05-22 16:30:00,66.0,61.0,29.63,East,93,0.0,0.0,85,0.00,,,0.35,WXlink_for_OpenVMS,2013-05-22 20:30:00,
2013-05-22 16:35:00,65.8,61.0,29.63,East,92,0.0,0.0,82,0.00,,,0.35,WXlink_for_OpenVMS,2013-05-22 20:35:00,
2013-05-22 16:40:00,65.3,61.0,29.63,East,95,0.0,0.0,82,0.00,,,0.35,WXlink_for_OpenVMS,2013-05-22 20:40:00,
2013-05-22 16:50:00,64.4,61.0,29.63,East,86,0.0,0.0,82,0.00,,,0.35,WXlink_for_OpenVMS,2013-05-22 20:50:00,
2013-05-22 16:55:00,64.2,59.0,29.63,East,86,0.0,0.0,82,0.00,,,0.35,WXlink_for_OpenVMS,2013-05-22 20:55:00,
2013-05-22 17:00:00,63.9,59.0,29.63,NNW,346,0.0,0.0,83,0.00,,,0.35,WXlink_for_OpenVMS,2013-05-22 21:00:00,
2013-05-22 17:05:00,63.5,59.0,29.63,ENE,72,0.0,0.0,82,0.00,,,0.35,WXlink_for_OpenVMS,2013-05-22 21:05:00,
2013-05-22 17:10:00,63.0,59.0,29.63,NNE,31,0.0,0.0,82,0.00,,,0.35,WXlink_for_OpenVMS,2013-05-22 21:10:00,
2013-05-22 17:15:00,62.6,59.0,29.63,North,5,0.0,0.0,82,0.00,,,0.35,WXlink_for_OpenVMS,2013-05-22 21:15:00,
2013-05-22 17:20:00,62.2,59.0,29.63,ENE,69,0.0,0.0,82,0.00,,,0.35,WXlink_for_OpenVMS,2013-05-22 21:20:00,
2013-05-22 17:25:00,61.9,57.0,29.63,East,79,0.0,4.9,82,0.00,,,0.35,WXlink_for_OpenVMS,2013-05-22 21:25:00,
2013-05-22 17:30:00,61.9,57.0,29.63,East,90,0.0,0.0,83,0.00,,,0.35,WXlink_for_OpenVMS,2013-05-22 21:30:00,
2013-05-22 17:35:00,61.7,57.0,29.63,NE,39,0.0,0.0,83,0.00,,,0.35,WXlink_for_OpenVMS,2013-05-22 21:35:00,
2013-05-22 17:40:00,61.3,57.0,29.63,NE,39,0.0,0.0,83,0.00,,,0.35,WXlink_for_OpenVMS,2013-05-22 21:40:00,
2013-05-22 17:45:00,61.0,57.0,29.63,ESE,112,0.0,0.0,83,0.00,,,0.35,WXlink_for_OpenVMS,2013-05-22 21:45:00,
2013-05-22 17:50:00,60.8,57.0,29.63,WSW,252,0.0,0.0,83,0.00,,,0.35,WXlink_for_OpenVMS,2013-05-22 21:50:00,
2013-05-22 18:00:00,60.3,55.0,29.63,North,357,0.0,0.0,83,0.00,,,0.35,WXlink_for_OpenVMS,2013-05-22 22:00:00,
2013-05-22 18:05:00,59.7,55.0,29.63,East,91,0.0,0.0,83,0.00,,,0.35,WXlink_for_OpenVMS,2013-05-22 22:05:00,
2013-05-22 18:10:00,59.4,55.0,29.63,East,86,0.0,0.0,84,0.00,,,0.35,WXlink_for_OpenVMS,2013-05-22 22:10:00,
2013-05-22 18:15:00,59.0,55.0,29.63,East,87,0.0,0.0,84,0.00,,,0.35,WXlink_for_OpenVMS,2013-05-22 22:15:00,
2013-05-22 18:20:00,58.8,55.0,29.63,East,92,0.0,0.0,85,0.00,,,0.35,WXlink_for_OpenVMS,2013-05-22 22:20:00,
2013-05-22 18:25:00,58.8,55.0,29.63,East,92,0.0,0.0,85,0.00,,,0.35,WXlink_for_OpenVMS,2013-05-22 22:25:00,
2013-05-22 18:30:00,58.6,55.0,29.63,East,92,0.0,0.0,85,0.00,,,0.35,WXlink_for_OpenVMS,2013-05-22 22:30:00,
2013-05-22 18:35:00,58.6,55.0,29.63,ESE,105,0.0,0.0,86,0.00,,,0.35,WXlink_for_OpenVMS,2013-05-22 22:35:00,
2013-05-22 18:40:00,58.3,55.0,29.63,East,97,0.0,0.0,86,0.00,,,0.35,WXlink_for_OpenVMS,2013-05-22 22:40:00,
2013-05-22 18:45:00,58.3,55.0,29.66,East,89,0.0,0.0,87,0.00,,,0.35,WXlink_for_OpenVMS,2013-05-22 22:45:00,
2013-05-22 18:50:00,58.1,55.0,29.66,East,88,0.0,0.0,87,0.00,,,0.35,WXlink_for_OpenVMS,2013-05-22 22:50:00,
2013-05-22 18:55:00,57.9,55.0,29.66,East,88,0.0,0.0,87,0.00,,,0.35,WXlink_for_OpenVMS,2013-05-22 22:55:00,
2013-05-22 19:05:00,57.7,55.0,29.66,ESE,103,0.0,0.0,88,0.00,,,0.35,WXlink_for_OpenVMS,2013-05-22 23:05:00,
2013-05-22 19:10:00,57.7,55.0,29.66,ENE,74,0.0,0.0,88,0.00,,,0.35,WXlink_for_OpenVMS,2013-05-22 23:10:00,
2013-05-22 19:15:00,57.7,55.0,29.66,ENE,74,0.0,0.0,88,0.00,,,0.35,WXlink_for_OpenVMS,2013-05-22 23:15:00,
2013-05-22 19:20:00,57.7,55.0,29.66,ENE,74,0.0,0.0,89,0.00,,,0.35,WXlink_for_OpenVMS,2013-05-22 23:20:00,
2013-05-22 19:25:00,57.7,55.0,29.66,ENE,78,0.0,0.0,89,0.00,,,0.35,WXlink_for_OpenVMS,2013-05-22 23:25:00,
2013-05-22 19:30:00,57.7,55.0,29.66,West,261,0.0,0.0,89,0.00,,,0.35,WXlink_for_OpenVMS,2013-05-22 23:30:00,
2013-05-22 19:35:00,57.6,55.0,29.66,NNE,13,0.0,0.0,89,0.00,,,0.35,WXlink_for_OpenVMS,2013-05-22 23:35:00,
2013-05-22 19:40:00,57.6,55.0,29.66,NNE,13,0.0,0.0,89,0.00,,,0.35,WXlink_for_OpenVMS,2013-05-22 23:40:00,
2013-05-22 19:45:00,57.6,55.0,29.66,ENE,74,0.0,0.0,89,0.00,,,0.35,WXlink_for_OpenVMS,2013-05-22 23:45:00,
2013-05-22 19:50:00,57.6,55.0,29.66,ENE,73,0.0,0.0,90,0.00,,,0.35,WXlink_for_OpenVMS,2013-05-22 23:50:00,
2013-05-22 19:55:00,57.6,55.0,29.66,East,83,0.0,0.0,90,0.00,,,0.35,WXlink_for_OpenVMS,2013-05-22 23:55:00,
2013-05-22 20:00:00,57.4,54.0,29.66,East,90,0.0,0.0,90,0.00,,,0.35,WXlink_for_OpenVMS,2013-05-23 00:00:00,
2013-05-22 20:05:00,57.2,54.0,29.66,East,90,0.0,0.0,90,0.00,,,0.35,WXlink_for_OpenVMS,2013-05-23 00:05:00,
2013-05-22 20:10:00,57.2,54.0,29.66,East,90,0.0,0.0,90,0.00,,,0.35,WXlink_for_OpenVMS,2013-05-23 00:10:00,
2013-05-22 20:15:00,57.2,54.0,29.66,East,101,0.0,0.0,90,0.00,,,0.35,WXlink_for_OpenVMS,2013-05-23 00:15:00,
2013-05-22 20:20:00,57.2,54.0,29.66,WNW,283,0.0,0.0,90,0.00,,,0.35,WXlink_for_OpenVMS,2013-05-23 00:20:00,
2013-05-22 20:30:00,57.0,54.0,29.66,WNW,283,0.0,0.0,90,0.00,,,0.35,WXlink_for_OpenVMS,2013-05-23 00:30:00,
2013-05-22 20:40:00,57.0,54.0,29.66,WNW,282,0.0,0.0,90,0.00,,,0.35,WXlink_for_OpenVMS,2013-05-23 00:40:00,
2013-05-22 20:45:00,57.0,54.0,29.66,WNW,282,0.0,0.0,90,0.00,,,0.35,WXlink_for_OpenVMS,2013-05-23 00:45:00,
2013-05-22 20:50:00,56.8,54.0,29.66,WSW,240,0.0,0.0,90,0.00,,,0.35,WXlink_for_OpenVMS,2013-05-23 00:50:00,
2013-05-22 20:55:00,57.0,55.0,29.66,WSW,240,0.0,0.0,91,0.00,,,0.35,WXlink_for_OpenVMS,2013-05-23 00:55:00,
2013-05-22 21:00:00,56.8,55.0,29.66,WSW,240,0.0,0.0,91,0.00,,,0.35,WXlink_for_OpenVMS,2013-05-23 01:00:00,
2013-05-22 21:05:00,56.7,55.0,29.66,WSW,240,0.0,0.0,91,0.00,,,0.35,WXlink_for_OpenVMS,2013-05-23 01:05:00,
2013-05-22 21:10:00,56.7,55.0,29.66,WSW,240,0.0,0.0,91,0.00,,,0.35,WXlink_for_OpenVMS,2013-05-23 01:10:00,
2013-05-22 21:15:00,56.7,55.0,29.66,WSW,240,0.0,0.0,91,0.00,,,0.35,WXlink_for_OpenVMS,2013-05-23 01:15:00,
2013-05-22 21:20:00,56.7,55.0,29.66,WSW,240,0.0,0.0,91,0.00,,,0.35,WXlink_for_OpenVMS,2013-05-23 01:20:00,
2013-05-22 21:25:00,56.5,55.0,29.66,East,81,0.0,0.0,91,0.00,,,0.35,WXlink_for_OpenVMS,2013-05-23 01:25:00,
2013-05-22 21:35:00,56.3,55.0,29.69,ENE,58,0.0,0.0,91,0.00,,,0.35,WXlink_for_OpenVMS,2013-05-23 01:35:00,
2013-05-22 21:40:00,56.3,55.0,29.69,ENE,58,0.0,0.0,91,0.00,,,0.35,WXlink_for_OpenVMS,2013-05-23 01:40:00,
2013-05-22 21:45:00,56.1,55.0,29.69,East,95,0.0,0.0,92,0.00,,,0.35,WXlink_for_OpenVMS,2013-05-23 01:45:00,
2013-05-22 21:50:00,55.9,55.0,29.69,East,94,0.0,0.0,92,0.00,,,0.35,WXlink_for_OpenVMS,2013-05-23 01:50:00,
2013-05-22 21:55:00,55.9,55.0,29.69,East,94,0.0,0.0,92,0.00,,,0.35,WXlink_for_OpenVMS,2013-05-23 01:55:00,
2013-05-22 22:00:00,55.8,55.0,29.69,East,94,0.0,0.0,92,0.00,,,0.35,WXlink_for_OpenVMS,2013-05-23 02:00:00,
2013-05-22 22:05:00,55.8,55.0,29.69,East,94,0.0,0.0,92,0.00,,,0.35,WXlink_for_OpenVMS,2013-05-23 02:05:00,
2013-05-22 22:10:00,55.9,54.0,29.69,East,94,0.0,0.0,93,0.00,,,0.35,WXlink_for_OpenVMS,2013-05-23 02:10:00,
2013-05-22 22:15:00,55.8,55.0,29.69,East,94,0.0,0.0,93,0.00,,,0.35,WXlink_for_OpenVMS,2013-05-23 02:15:00,
2013-05-22 22:25:00,55.8,54.0,29.69,East,94,0.0,0.0,93,0.00,,,0.35,WXlink_for_OpenVMS,2013-05-23 02:25:00,
2013-05-22 22:30:00,55.8,54.0,29.69,East,94,0.0,0.0,93,0.00,,,0.35,WXlink_for_OpenVMS,2013-05-23 02:30:00,
2013-05-22 22:35:00,55.8,54.0,29.69,East,94,0.0,0.0,94,0.00,,,0.35,WXlink_for_OpenVMS,2013-05-23 02:35:00,
2013-05-22 22:45:00,55.6,54.0,29.69,East,94,0.0,0.0,94,0.00,,,0.35,WXlink_for_OpenVMS,2013-05-23 02:45:00,
2013-05-22 22:50:00,55.4,54.0,29.69,East,94,0.0,0.0,94,0.00,,,0.35,WXlink_for_OpenVMS,2013-05-23 02:50:00,
2013-05-22 22:55:00,55.4,54.0,29.69,East,94,0.0,0.0,94,0.00,,,0.35,WXlink_for_OpenVMS,2013-05-23 02:55:00,
2013-05-22 23:00:00,55.4,54.0,29.69,East,94,0.0,0.0,94,0.00,,,0.35,WXlink_for_OpenVMS,2013-05-23 03:00:00,
2013-05-22 23:05:00,55.2,54.0,29.69,East,94,0.0,0.0,94,0.00,,,0.35,WXlink_for_OpenVMS,2013-05-23 03:05:00,
2013-05-22 23:10:00,55.2,54.0,29.69,East,94,0.0,0.0,94,0.00,,,0.35,WXlink_for_OpenVMS,2013-05-23 03:10:00,
2013-05-22 23:20:00,55.2,54.0,29.66,East,94,0.0,0.0,95,0.00,,,0.35,WXlink_for_OpenVMS,2013-05-23 03:20:00,
2013-05-22 23:25:00,55.0,54.0,29.66,East,94,0.0,0.0,95,0.00,,,0.35,WXlink_for_OpenVMS,2013-05-23 03:25:00,
2013-05-22 23:30:00,55.0,54.0,29.66,East,94,0.0,0.0,95,0.00,,,0.35,WXlink_for_OpenVMS,2013-05-23 03:30:00,
2013-05-22 23:35:00,55.0,54.0,29.66,East,94,0.0,0.0,95,0.00,,,0.35,WXlink_for_OpenVMS,2013-05-23 03:35:00,
2013-05-22 23:40:00,55.0,54.0,29.66,East,94,0.0,0.0,95,0.00,,,0.35,WXlink_for_OpenVMS,2013-05-23 03:40:00,
2013-05-22 23:45:00,55.0,54.0,29.66,East,94,0.0,0.0,95,0.00,,,0.35,WXlink_for_OpenVMS,2013-05-23 03:45:00,
2013-05-22 23:55:00,55.0,54.0,29.66,East,94,0.0,0.0,95,0.00,,,0.35,WXlink_for_OpenVMS,2013-05-23 03:55:00,